Find Starlink 1771

NORAD ID: 46384 Int'l Des: 2020-062 Owner: SPXS Country: US Constellation: starlink operational
LEOCIRCULAR

現在のビュー

3D地球を読み込み中...

About Starlink 1771

Starlink 1771 (NORAD 46384) is a starlink constellation satellite (v1.0) launched Sep 3, 2020 by SPXS of US. It operates in LEO, CIRCULAR orbit with a mass of 260.00 kg.

Starlink 1771について

説明を読み込み中...

次回通過

Passes for default location (London). Set your location on the main map for personalized predictions.

高度履歴

Loading altitude history...

軌道要素

1 46384U 20062BM 26192.14013455 .00034445 00000-0 32203-3 0 9991
2 46384 53.0368 107.6999 0001400 111.7163 248.4001 15.66965506323969
Epoch: Jul 11, 2026 • Age: 24 hours

現在のステータス

高度 380.0 km
遠地点 / 近地点 N/A
速度 7.68 km/s
衛星直下点 -37.77°S, 21.31°W
打ち上げ日 Sep 3, 2020
運用期間 5.8 years
タイプ internet

技術仕様

分類 Payload
質量 260.00 kg
乾燥質量 248.00 kg
総質量 260.00 kg
長さ 0.20 m
直径 2.80 m
スパン 9.00 m
形状 Box + pan
製造者 SPXS
バスタイプ Starlink
フェーズステータス In Orbit
所有者/国 SPXS/US

Most Searched